Mobile - Dauphin Island Weather Center

Moon Phase Calendar



Online Cameras

 


      

Current Conditions in Point Clear
5/12/2021 5:50:38 PM

75°F
Feels Like 77
Clouds
Humidity
89%
Pressure
30.06"
Wind
10 mph (N)
Dew Point
72°F
UV Index
0/10 (Low)
Visibility
6 mi

Hourly Forecast

Date & Time Wed, May 12
5:00 PM
Wed, May 12
6:00 PM
Wed, May 12
7:00 PM
Wed, May 12
8:00 PM
Wed, May 12
9:00 PM
Wed, May 12
10:00 PM
Wed, May 12
11:00 PM
Thu, May 13
12:00 AM
Thu, May 13
1:00 AM
Thu, May 13
2:00 AM
Thu, May 13
3:00 AM
Thu, May 13
4:00 AM
Thu, May 13
5:00 AM
Thu, May 13
6:00 AM
Thu, May 13
7:00 AM
Thu, May 13
8:00 AM
Thu, May 13
9:00 AM
Thu, May 13
10:00 AM
Thu, May 13
11:00 AM
Thu, May 13
12:00 PM
Thu, May 13
1:00 PM
Thu, May 13
2:00 PM
Thu, May 13
3:00 PM
Thu, May 13
4:00 PM
Thu, May 13
5:00 PM
Thu, May 13
6:00 PM
Thu, May 13
7:00 PM
Thu, May 13
8:00 PM
Thu, May 13
9:00 PM
Thu, May 13
10:00 PM
Thu, May 13
11:00 PM
Fri, May 14
12:00 AM
Fri, May 14
1:00 AM
Fri, May 14
2:00 AM
Fri, May 14
3:00 AM
Fri, May 14
4:00 AM
Fri, May 14
5:00 AM
Fri, May 14
6:00 AM
Fri, May 14
7:00 AM
Fri, May 14
8:00 AM
Fri, May 14
9:00 AM
Fri, May 14
10:00 AM
Fri, May 14
11:00 AM
Fri, May 14
12:00 PM
Fri, May 14
1:00 PM
Fri, May 14
2:00 PM
Fri, May 14
3:00 PM
Fri, May 14
4:00 PM
Condition
Rain

Clouds

Clouds

Clouds

Clouds

Clouds

Clouds

Clouds

Clouds

Clouds

Clouds

Clouds

Clouds

Clouds

Clouds

Clouds

Clouds

Clouds

Clouds

Clouds

Clouds

Clouds

Clouds

Clouds

Clouds

Clouds

Clouds

Clouds

Clouds

Clouds

Clouds

Clouds

Clouds

Clouds

Clouds

Clouds

Clouds

Clouds

Clouds

Clear

Clear

Clear

Clear

Clear

Clear

Clear

Clear

Clear
Temperature 75°F75°F74°F73°F72°F71°F70°F69°F67°F66°F65°F63°F62°F62°F62°F62°F63°F66°F68°F70°F72°F73°F75°F75°F74°F74°F73°F73°F72°F71°F71°F70°F69°F69°F68°F66°F65°F64°F64°F66°F67°F69°F71°F72°F73°F73°F73°F73°F
Feels Like 76°F77°F75°F75°F73°F72°F70°F70°F68°F67°F65°F63°F62°F62°F61°F62°F63°F66°F68°F70°F72°F73°F75°F75°F74°F74°F73°F72°F72°F71°F70°F69°F69°F68°F67°F65°F64°F64°F64°F65°F67°F69°F71°F72°F72°F72°F72°F73°F
Cloudiness 52%40%52%64%76%88%100%100%100%100%100%100%100%100%99%28%29%33%30%31%38%93%66%71%75%77%79%100%100%100%100%100%100%99%100%66%50%40%33%0%0%0%0%0%0%0%0%0%
Visibility 6 mi5 mi6 mi6 mi6 mi6 mi6 mi6 mi6 mi6 mi6 mi6 mi6 mi6 mi6 mi6 mi6 mi6 mi6 mi6 mi6 mi6 mi6 mi6 mi6 mi6 mi6 mi6 mi6 mi6 mi6 mi6 mi6 mi6 mi6 mi6 mi6 mi6 mi6 mi6 mi6 mi6 mi6 mi6 mi6 mi6 mi6 mi6 mi
Precipitation 77%87%87%20%8%1%2%4%4%0%0%0%0%0%0%1%1%0%0%0%0%0%0%0%0%0%0%0%0%0%0%0%0%0%0%0%0%0%0%0%0%0%0%0%0%0%0%0%
Humidity 87%89%88%88%87%85%85%86%89%90%89%90%90%89%87%84%79%73%68%64%62%59%57%58%62%64%64%63%63%64%65%66%67%67%70%72%74%75%75%72%69%64%59%54%53%56%59%60%
Dew Point 71°F72°F70°F70°F68°F66°F65°F65°F64°F63°F61°F60°F59°F58°F58°F57°F57°F57°F57°F58°F58°F58°F58°F59°F60°F61°F60°F59°F59°F58°F58°F58°F58°F57°F57°F57°F56°F56°F56°F56°F57°F57°F56°F55°F54°F56°F58°F58°F
Pressure 30.06"30.06"30.06"30.06"30.09"30.12"30.12"30.12"30.12"30.12"30.12"30.12"30.12"30.15"30.18"30.18"30.21"30.21"30.21"30.18"30.18"30.15"30.15"30.12"30.12"30.12"30.15"30.15"30.18"30.18"30.18"30.18"30.18"30.18"30.15"30.18"30.18"30.21"30.21"30.24"30.24"30.24"30.24"30.24"30.21"30.21"30.18"30.18"
Wind Speed 10.2 mph10 mph11.1 mph12 mph12.3 mph10.3 mph10.2 mph11.3 mph13.3 mph14.2 mph14.1 mph13 mph12.6 mph12.4 mph14 mph14.8 mph13.8 mph12.4 mph11.7 mph11 mph9.6 mph8.7 mph7.9 mph7.2 mph7.7 mph6.8 mph7.5 mph9.2 mph9.4 mph9.8 mph11 mph11.7 mph9.6 mph8.8 mph10.5 mph10.5 mph11 mph10.6 mph10.7 mph10.7 mph10.2 mph8.2 mph6.2 mph3.1 mph1.7 mph5.4 mph10.2 mph11.4 mph
Wind
Direction
353°
N
354°
N
16°
NNE
22°
NNE
34°
NE
36°
NE
40°
NE
46°
NE
59°
ENE
65°
ENE
59°
ENE
54°
NE
50°
NE
41°
NE
35°
NE
35°
NE
36°
NE
34°
NE
29°
NNE
23°
NNE
18°
NNE
18°
NNE
37°
NE
44°
NE
56°
NE
54°
NE
31°
NNE
23°
NNE
26°
NNE
22°
NNE
27°
NNE
37°
NE
49°
NE
45°
NE
32°
NNE
31°
NNE
37°
NE
38°
NE
47°
NE
53°
NE
59°
ENE
65°
ENE
64°
ENE
72°
ENE
166°
SSE
186°
S
181°
S
179°
S

Daily Forecast

Date High Low Precip. Humidity
Today
May 12

Rain
77 °F
68 °F
100%
75%
Thursday
May 13

Clouds
75 °F
62 °F
4%
64%
Friday
May 14

Clear
73 °F
64 °F
0%
53%
Saturday
May 15

Clear
76 °F
66 °F
0%
55%
Sunday
May 16

Rain
75 °F
67 °F
82%
77%
Monday
May 17

Rain
73 °F
72 °F
90%
80%
Tuesday
May 18

Rain
77 °F
71 °F
41%
71%
Wednesday
May 19

Rain
79 °F
72 °F
96%
70%
Thursday
May 20

Rain
79 °F
73 °F
31%
71%
Friday
May 21

Rain
80 °F
73 °F
32%
70%
Saturday
May 22

Rain
78 °F
74 °F
97%
83%
Sunday
May 23

Rain
80 °F
74 °F
92%
71%
Monday
May 24

Rain
80 °F
75 °F
40%
77%
Tuesday
May 25

Clouds
81 °F
75 °F
0%
66%
Wednesday
May 26

Clear
83 °F
74 °F
0%
58%
Thursday
May 27

Clear
85 °F
74 °F
8%
55%

Temperature 8-14 Day Outlook



Precipitation 8-14 Day Outlook




Quick Links
Mobile - Dauphin Island News
Mobile - Dauphin Island Photos
Mobile - Dauphin Island Videos




About Us
Contact Us
Site Map
Search Site
Advertise With Us
   
Mobile.USGulf.info
THE MOBILE - DAUPHIN ISLAND WEBSITE

Copyright 2021, Coastal Town
Privacy    |    Legal